Wind_Speed
5 4 5 4 4 4 4 3 3 4 4 4 5 5 5 5 5 6 7 6 7 7 7 7 7 8 9 9 8 8 9 9 9 9 10 10 11 10 10 10 10 10 11
4 4 4 3 3 3 3 3 3 3 3 3 3 4 5 4 5 5 6 5 5 6 6 7 7 8 8 9 9 9 9 9 8 9 10 10 11 11 11 11 11 11 11
3 3 3 3 3 3 3 2 2 2 2 2 2 3 3 4 5 4 4 5 4 5 6 6 6 7 7 8 8 8 8 9 8 9 10 10 11 11 12 12 12 13 13
3 3 3 2 2 2 2 2 2 1 2 2 2 3 2 2 3 3 3 4 4 5 5 5 6 5 5 6 6 7 8 8 9 9 10 10 11 12 12 12 13 14 14
3 3 2 2 1 1 1 1 1 1 1 1 1 2 1 1 1 2 3 3 4 4 4 5 5 5 5 6 7 8 8 8 9 9 10 10 11 12 13 13 14 15 15
3 2 2 1 1 1 0 1 1 2 2 2 1 2 2 2 2 2 3 3 3 3 4 5 5 5 5 6 6 7 7 8 9 9 9 10 11 12 12 13 14 15 16
2 2 1 1 1 1 0 1 1 2 3 2 1 1 2 2 2 2 3 3 4 4 4 4 5 6 6 6 6 7 7 8 9 9 10 10 11 11 12 13 14 15 16
2 2 2 2 2 2 1 1 1 1 2 2 2 2 2 2 2 3 3 4 4 4 5 5 4 5 5 6 7 7 7 8 10 10 11 11 12 12 12 13 14 14 15
2 2 2 1 2 1 1 1 1 2 2 2 2 2 2 2 3 3 4 4 5 5 6 6 6 6 6 6 7 8 8 9 9 10 11 12 13 13 14 14 14 15 16
3 2 2 2 2 2 2 1 2 2 2 2 2 2 2 2 3 3 4 4 5 5 5 5 6 6 7 7 8 9 9 10 10 11 12 12 13 13 14 15 15 16 17
3 2 2 2 2 2 2 3 3 3 3 3 3 3 4 3 4 5 5 5 6 5 6 6 6 6 7 8 8 9 10 10 11 12 13 13 14 15 15 16 16 17 18
3 2 2 3 2 3 3 4 4 4 4 4 5 5 5 5 5 6 6 6 7 7 7 7 8 8 9 9 9 10 10 11 12 13 14 14 15 16 17 18 18 19 19
4 3 3 3 3 3 4 4 4 5 5 6 6 6 6 6 6 6 6 6 7 7 8 8 9 9 9 10 10 11 12 12 13 14 15 16 17 17 18 19 20 21 21
5 4 3 3 4 4 4 4 4 5 6 6 6 6 6 6 7 7 7 7 7 7 8 9 9 10 10 11 11 12 13 13 15 15 16 16 17 18 19 20 21 22 22
6 5 4 5 5 4 5 5 6 6 6 6 6 7 7 7 8 8 8 8 8 8 9 10 10 11 11 12 13 13 14 14 15 16 17 18 18 19 20 22 22 23 23
7 7 6 6 6 6 7 6 6 6 7 7 7 7 8 8 8 9 9 10 10 10 10 11 11 12 13 14 14 15 16 17 17 18 18 19 20 21 22 22 23 24 24
7 7 7 8 8 8 7 7 7 7 7 7 7 8 8 9 9 10 10 11 11 11 11 12 12 13 14 15 16 17 18 19 19 20 20 21 22 23 23 24 24 24 25
7 8 8 8 8 9 9 9 9 9 8 8 9 9 9 10 10 10 11 11 11 11 12 13 13 14 15 16 17 18 19 20 20 21 22 23 24 24 25 25 25 25 26
8 8 8 8 9 9 10 9 10 10 10 10 10 11 11 11 11 11 11 12 12 12 13 14 15 15 16 17 18 19 20 21 22 23 23 24 25 26 26 26 27 27 27
9 9 10 9 10 10 10 11 11 11 12 12 12 12 11 11 11 12 12 13 13 13 14 15 16 17 18 19 20 21 22 23 24 24 25 26 26 27 27 27 27 28 28
10 10 10 11 10 11 11 11 11 11 12 12 12 11 11 12 12 12 13 13 14 14 15 16 18 19 20 21 22 22 23 24 25 26 27 27 27 27 28 28 29 29 30
11 11 12 12 12 12 12 11 11 11 11 11 11 12 12 12 13 14 14 15 15 16 17 18 19 21 22 22 23 24 24 25 26 27 28 28 28 29 29 30 31 31 32
11 12 13 12 12 12 12 12 12 12 12 12 12 12 13 14 14 15 16 17 18 18 19 21 21 22 23 23 24 25 25 26 27 29 29 30 30 31 31 32 33 33 34
12 13 13 13 13 13 13 13 12 13 13 13 13 13 14 15 16 16 17 18 19 20 21 22 22 23 23 24 25 25 26 27 29 30 31 31 32 33 33 34 35 35 36
13 13 13 13 14 14 14 13 13 13 14 14 14 14 15 16 17 17 18 19 20 21 21 22 23 23 24 25 25 27 28 29 30 31 32 32 33 34 34 35 36 37 38
14 14 14 14 14 14 14 14 14 14 15 15 16 16 17 18 18 19 20 21 21 22 22 23 24 25 26 26 28 28 29 30 31 32 34 34 34 35 35 36 37 39 40
Wind_Direction
289 296 306 302 288 282 274 270 272 273 273 270 265 258 253 251 246 242 242 238 240 244 244 241 243 244 245 242 240 240 243 248 249 251 251 251 253 254 255 257 256 255 253
284 289 299 297 287 286 281 269 266 267 268 270 273 263 257 250 248 246 242 234 239 242 245 242 248 249 245 238 237 241 243 246 250 250 254 257 255 257 257 258 257 259 258
271 287 294 288 290 292 274 253 249 253 257 270 280 279 262 248 247 244 240 242 246 247 249 250 257 253 245 234 235 239 246 249 254 255 257 261 257 259 260 260 261 263 262
272 284 285 283 288 293 280 249 239 234 256 261 274 280 269 243 237 248 244 244 251 254 252 255 257 253 239 240 243 246 250 255 260 263 262 265 265 263 262 263 264 264 261
276 286 278 267 289 299 294 244 236 238 239 243 258 264 261 261 249 259 254 246 252 248 242 248 251 251 246 245 247 249 253 257 262 267 267 270 273 271 268 268 267 266 264
269 266 268 270 281 295 265 230 245 254 246 251 259 248 253 257 262 254 254 253 254 244 249 250 246 244 247 249 251 252 256 260 266 270 273 272 275 276 273 273 269 267 268
257 251 283 277 244 235 231 270 265 266 256 254 254 247 257 255 245 251 260 259 252 253 256 255 249 247 248 254 255 257 260 264 269 272 275 275 276 278 277 275 272 272 272
242 234 241 244 229 220 223 288 292 278 266 257 251 257 266 266 256 256 264 264 264 263 261 260 259 258 261 262 262 266 270 274 274 274 275 275 276 279 281 278 275 276 276
228 231 251 224 217 210 221 263 277 293 291 284 260 262 259 271 270 266 268 271 270 261 259 263 267 267 269 270 274 277 279 279 279 280 276 276 276 276 277 279 279 278 277
226 247 248 239 234 235 248 258 276 291 296 295 279 273 276 282 280 277 281 279 275 266 263 269 272 270 269 271 276 279 281 285 286 284 282 282 280 278 279 280 281 280 279
224 235 245 252 249 246 259 267 278 285 289 287 287 282 275 272 273 278 282 284 285 282 274 275 277 276 278 280 282 284 286 288 288 286 285 284 282 281 281 281 281 281 281
233 244 258 267 264 260 264 272 278 279 284 286 286 286 282 277 280 281 283 287 288 287 284 283 280 280 282 284 285 287 290 291 290 289 288 287 285 284 284 283 282 281 281
242 246 249 255 269 269 268 279 280 282 283 287 284 280 278 280 284 287 288 288 288 286 283 283 285 286 287 287 288 288 290 291 292 291 290 288 286 286 286 285 284 283 283
244 251 251 254 265 272 278 284 287 287 285 285 282 276 276 279 282 286 289 287 286 286 286 286 287 289 291 290 291 292 292 292 292 292 292 292 291 290 290 289 288 287 286
248 252 261 266 260 268 277 284 287 288 288 287 282 276 278 281 283 286 289 289 288 288 288 290 291 291 293 294 294 294 294 293 294 294 294 295 296 296 296 294 292 291 289
244 250 260 266 266 275 281 284 288 292 290 289 287 284 283 283 283 286 289 289 289 289 290 292 293 295 296 296 296 296 297 297 297 297 297 297 297 297 297 297 295 294 292
247 255 263 267 270 276 283 285 287 287 287 290 290 289 288 287 285 287 288 290 290 289 288 290 292 294 295 296 296 296 296 297 298 298 298 298 298 297 297 297 296 295 293
256 261 267 268 273 276 281 285 283 283 284 288 291 291 290 290 289 289 290 291 291 291 292 293 294 295 296 297 297 297 297 297 298 298 298 297 297 298 298 297 296 295 294
259 263 267 270 275 277 278 280 282 281 283 286 289 289 289 289 289 291 291 292 293 295 297 298 297 297 296 297 298 299 300 299 299 299 299 298 298 297 297 297 296 296 295
261 263 267 271 275 278 279 280 282 283 283 284 285 287 288 290 292 293 294 294 295 296 297 298 299 299 299 299 299 299 300 300 300 299 299 299 298 298 298 298 297 297 296
263 265 269 272 276 278 280 283 284 285 286 286 286 286 289 291 293 294 295 295 296 297 298 298 298 298 298 298 298 299 299 300 300 300 300 300 299 298 298 298 297 297 296
264 266 269 272 275 278 280 281 284 288 287 287 289 289 289 291 292 293 294 295 296 297 298 299 299 298 298 298 298 299 300 300 301 301 301 301 299 298 298 298 298 297 296
267 268 268 272 274 278 280 280 282 286 288 288 288 288 289 290 291 292 293 295 296 297 299 300 300 300 299 299 299 300 300 301 301 301 301 301 300 300 299 299 298 297 297
269 271 271 273 276 277 278 279 281 284 287 288 288 288 288 290 292 293 295 297 298 299 299 300 300 301 301 301 302 302 302 303 303 302 301 301 300 300 300 299 298 297 297
269 274 274 275 277 276 277 278 281 284 287 289 289 289 289 291 294 295 296 298 300 300 301 302 303 303 304 303 304 304 304 305 305 304 303 302 300 300 300 299 298 298 297
268 272 274 275 276 274 276 276 280 285 288 289 290 291 292 293 294 295 297 298 299 301 302 303 304 304 305 306 306 306 306 306 306 305 304 302 301 301 301 300 299 299 298
Height
5865 5864 5863 5863 5862 5861 5861 5860 5860 5860 5859 5859 5858 5858 5858 5858 5858 5859 5859 5859 5859 5860 5860 5860 5861 5861 5861 5862 5862 5863 5864 5864 5865 5865 5866 5866 5867 5867 5867 5867 5868 5868 5868
5863 5863 5862 5862 5861 5860 5860 5859 5859 5859 5858 5858 5857 5857 5857 5857 5857 5858 5858 5858 5858 5859 5859 5859 5859 5859 5859 5859 5860 5861 5862 5862 5863 5863 5864 5864 5864 5865 5865 5865 5865 5866 5866
5862 5862 5861 5860 5860 5859 5859 5858 5858 5858 5857 5857 5857 5856 5856 5856 5856 5857 5857 5857 5857 5857 5858 5857 5857 5856 5855 5856 5858 5859 5860 5861 5861 5861 5861 5862 5862 5862 5862 5863 5863 5863 5864
5861 5860 5860 5859 5859 5858 5858 5858 5857 5857 5857 5857 5856 5856 5856 5855 5856 5856 5856 5856 5856 5856 5856 5856 5856 5854 5854 5855 5857 5858 5859 5859 5859 5859 5859 5859 5859 5859 5860 5860 5860 5860 5860
5859 5859 5859 5858 5858 5858 5857 5857 5857 5857 5857 5856 5856 5855 5855 5855 5855 5855 5855 5855 5855 5855 5855 5855 5855 5854 5854 5855 5856 5856 5857 5857 5857 5857 5857 5857 5857 5857 5857 5857 5857 5857 5857
5859 5858 5858 5857 5857 5857 5857 5857 5856 5856 5856 5856 5855 5855 5855 5855 5854 5854 5855 5854 5854 5854 5854 5854 5854 5854 5854 5854 5854 5855 5855 5855 5855 5855 5855 5855 5855 5855 5854 5854 5854 5854 5854
5858 5857 5857 5857 5857 5857 5856 5856 5856 5856 5855 5855 5855 5855 5854 5854 5854 5854 5854 5854 5854 5853 5853 5853 5853 5853 5853 5853 5853 5853 5853 5853 5853 5853 5853 5852 5852 5852 5851 5851 5850 5850 5850
5857 5857 5856 5856 5856 5856 5856 5855 5855 5855 5855 5855 5854 5854 5854 5854 5854 5853 5853 5853 5853 5852 5852 5852 5852 5852 5851 5851 5851 5851 5851 5851 5851 5850 5850 5850 5849 5849 5848 5848 5847 5846 5846
5856 5856 5856 5855 5855 5855 5855 5855 5855 5855 5854 5854 5854 5854 5853 5853 5853 5853 5852 5852 5852 5851 5851 5851 5851 5851 5850 5850 5850 5849 5849 5849 5848 5848 5847 5847 5846 5846 5845 5844 5843 5843 5842
5855 5855 5855 5855 5855 5855 5855 5854 5854 5854 5854 5853 5853 5853 5853 5852 5852 5852 5852 5851 5850 5850 5850 5850 5849 5849 5849 5848 5848 5847 5847 5846 5846 5845 5844 5843 5843 5842 5841 5841 5840 5839 5838
5854 5854 5854 5854 5854 5854 5854 5854 5854 5853 5853 5853 5852 5852 5852 5851 5851 5851 5850 5850 5849 5849 5848 5848 5848 5847 5847 5846 5846 5845 5844 5844 5843 5842 5841 5840 5839 5838 5838 5837 5836 5835 5833
5854 5854 5854 5853 5853 5853 5853 5853 5852 5852 5852 5852 5851 5851 5850 5850 5850 5850 5849 5848 5848 5847 5847 5846 5846 5845 5845 5844 5844 5843 5842 5841 5840 5839 5838 5837 5836 5835 5834 5833 5831 5830 5829
5852 5853 5853 5852 5852 5852 5852 5852 5851 5851 5851 5850 5850 5849 5849 5849 5848 5848 5847 5847 5846 5845 5845 5844 5843 5843 5842 5842 5841 5840 5839 5838 5837 5836 5834 5833 5832 5831 5829 5828 5826 5825 5823
5851 5852 5851 5851 5851 5851 5851 5850 5850 5849 5849 5849 5848 5848 5847 5847 5846 5846 5845 5845 5844 5843 5843 5842 5841 5840 5840 5839 5838 5837 5836 5835 5833 5832 5831 5829 5828 5826 5824 5823 5821 5820 5818
5850 5850 5850 5850 5850 5849 5849 5849 5849 5848 5847 5847 5846 5846 5845 5845 5844 5844 5843 5842 5842 5841 5841 5840 5839 5838 5837 5836 5834 5833 5832 5831 5829 5828 5826 5825 5823 5821 5819 5818 5816 5814 5812
5849 5849 5849 5849 5848 5848 5848 5847 5847 5846 5846 5845 5844 5844 5843 5843 5842 5842 5841 5840 5839 5839 5838 5837 5836 5835 5834 5832 5831 5830 5828 5827 5825 5824 5822 5820 5818 5816 5814 5812 5810 5808 5806
5847 5847 5847 5847 5847 5846 5846 5846 5845 5844 5844 5843 5842 5842 5841 5841 5840 5839 5838 5837 5836 5836 5835 5834 5833 5832 5830 5829 5827 5826 5824 5822 5821 5819 5817 5815 5813 5811 5809 5806 5804 5802 5799
5845 5845 5845 5845 5845 5844 5844 5843 5843 5842 5842 5841 5840 5839 5839 5838 5837 5837 5836 5835 5833 5833 5832 5830 5829 5828 5826 5825 5823 5821 5819 5817 5815 5814 5812 5809 5807 5805 5803 5800 5798 5795 5793
5843 5843 5843 5843 5843 5842 5842 5841 5841 5840 5839 5838 5838 5837 5836 5835 5834 5834 5833 5832 5830 5829 5828 5827 5826 5824 5822 5821 5819 5817 5815 5812 5810 5808 5805 5803 5801 5798 5796 5793 5791 5788 5786
5841 5841 5841 5841 5840 5840 5839 5839 5838 5837 5836 5836 5835 5834 5833 5832 5831 5830 5829 5828 5827 5826 5825 5823 5822 5820 5818 5816 5814 5812 5809 5807 5804 5802 5799 5796 5794 5791 5789 5786 5784 5781 5779
5838 5838 5838 5838 5837 5837 5836 5836 5835 5834 5833 5832 5832 5831 5830 5829 5828 5827 5826 5825 5824 5822 5821 5819 5817 5815 5813 5811 5809 5806 5804 5801 5798 5795 5792 5789 5787 5784 5781 5779 5776 5773 5771
5836 5836 5835 5835 5834 5834 5833 5833 5832 5831 5830 5829 5829 5828 5827 5826 5825 5824 5822 5821 5820 5818 5816 5815 5812 5810 5808 5805 5803 5800 5797 5795 5792 5789 5786 5782 5779 5776 5774 5771 5768 5765 5762
5833 5832 5832 5832 5831 5831 5830 5830 5829 5828 5827 5826 5825 5824 5823 5822 5821 5820 5818 5817 5815 5813 5812 5809 5807 5804 5802 5799 5796 5794 5791 5788 5785 5781 5778 5775 5771 5768 5765 5762 5759 5756 5753
5829 5829 5828 5828 5828 5827 5827 5826 5825 5825 5824 5822 5821 5820 5819 5818 5817 5815 5814 5812 5810 5808 5806 5804 5801 5798 5795 5792 5790 5787 5784 5781 5777 5773 5770 5767 5763 5760 5756 5753 5749 5746 5743
5826 5825 5825 5824 5824 5823 5823 5822 5821 5821 5820 5818 5817 5816 5815 5814 5812 5810 5809 5807 5805 5802 5800 5797 5794 5792 5789 5786 5783 5780 5776 5773 5770 5766 5762 5758 5755 5751 5747 5743 5739 5735 5732
5822 5822 5821 5821 5820 5819 5819 5818 5817 5817 5815 5814 5813 5812 5810 5809 5807 5805 5803 5801 5799 5797 5794 5791 5788 5785 5782 5779 5776 5772 5769 5765 5762 5758 5754 5750 5745 5742 5738 5734 5729 5725 5721